1508241600.93,20161,18.75,74832.0,20.29,-24.35,-26.45,0,*45
1508241602.19,20162,18.75,74832.3,20.29,-24.15,-26.13,0,*47
1508241603.43,20163,18.81,74838.3,20.31,-24.05,-26.03,0,*4F
1508241604.69,20164,18.75,74832.8,20.31,-23.95,-26.03,0,*46
1508241605.96,20165,18.75,74832.0,20.31,-26.39,-28.25,0,*4E
1508241607.19,20166,18.75,74832.8,20.31,-24.57,-26.61,0,*49
1508241608.46,20167,18.81,74834.8,20.31,-23.43,-25.55,0,*4E
1508241609.73,20168,18.75,74834.0,20.33,-24.25,-26.33,0,*47
1508241611.01,20169,18.75,74832.5,20.35,-23.69,-25.71,0,*4A
1508241612.27,20170,18.75,74832.8,20.35,-24.05,-26.13,0,*48
1508241613.53,20171,18.75,74834.0,20.35,-23.23,-25.39,0,*41
1508241614.77,20172,18.81,74834.5,20.37,-23.49,-25.49,0,*4B
1508241616.02,20173,18.75,74832.8,20.39,-23.85,-25.91,0,*41
1508241617.27,20174,18.75,74832.5,20.39,-26.45,-28.47,0,*49
1508241618.53,20175,18.75,74832.8,20.39,-26.97,-28.69,0,*4B
1508241619.79,20176,18.75,74832.0,20.39,-25.75,-27.67,0,*46
1508241621.06,20177,18.81,74834.0,20.39,-24.35,-26.29,0,*49
1508241622.31,20178,18.81,74836.0,20.39,-24.11,-26.07,0,*4C
1508241623.56,20179,18.81,74834.5,20.37,-23.69,-25.81,0,*46
1508241624.84,20180,18.75,74834.0,20.39,-23.85,-25.81,0,*4C
1508241626.1,20181,18.81,74834.5,20.43,-23.43,-25.45,0,*42
1508241627.35,20182,18.75,74834.0,20.43,-24.41,-26.45,0,*47
1508241628.61,20183,18.75,74832.5,20.45,-24.11,-25.97,0,*49
1508241629.84,20184,18.81,74834.5,20.45,-23.75,-25.81,0,*4C
1508241631.05,20185,18.81,74834.0,20.45,-24.35,-26.39,0,*4E
1508241632.28,20186,18.81,74838.3,20.45,-24.87,-26.87,0,*41
1508241633.5,20187,18.75,74834.8,20.45,-25.35,-27.23,0,*47
1508241634.72,20188,18.75,74834.8,20.45,-24.57,-26.55,0,*4D
1508241635.95,20189,18.81,74836.3,20.47,-25.49,-27.51,0,*45
1508241637.19,20190,18.81,74836.0,20.47,-26.65,-28.69,0,*44
1508241638.45,20191,18.81,74834.5,20.47,-25.55,-27.51,0,*41
1508241639.7,20192,18.81,74836.3,20.47,-24.97,-26.81,0,*41
1508241640.96,20193,18.81,74836.0,20.47,-24.35,-26.33,0,*41
1508241642.17,20194,18.81,74834.0,20.45,-24.05,-26.03,0,*44
1508241643.44,20195,18.81,74834.3,20.47,-23.75,-25.71,0,*41
1508241644.66,20196,18.75,74834.5,20.49,-23.69,-25.65,0,*44
1508241645.91,20197,18.81,74832.5,20.49,-24.15,-26.13,0,*4B
1508241647.17,20198,18.81,74834.3,20.49,-23.95,-25.81,0,*43
1508241648.39,20199,18.81,74836.3,20.53,-23.33,-25.39,0,*46
1508241649.62,20200,18.81,74832.5,20.53,-23.95,-25.87,0,*4C
1508241650.88,20201,18.75,74834.5,20.53,-24.25,-26.13,0,*4F
1508241652.09,20202,18.81,74832.8,20.53,-24.47,-26.45,0,*4B
1508241653.31,20203,18.81,74834.8,20.53,-24.57,-26.71,0,*4C
1508241654.57,20204,18.81,74834.8,20.55,-24.35,-26.17,0,*49
1508241655.82,20205,18.81,74836.0,20.55,-23.85,-25.87,0,*4E
1508241657.07,20206,18.81,74838.3,20.57,-23.53,-25.45,0,*4A
1508241658.35,20207,18.81,74836.8,20.59,-24.71,-26.55,0,*40
1508241659.61,20208,18.81,74834.0,20.59,-23.85,-25.87,0,*4F
1508241660.89,20209,18.81,74836.0,20.59,-24.11,-26.29,0,*43
1508241662.12,20210,18.81,74836.3,20.61,-24.47,-26.45,0,*49
1508241663.4,20211,18.81,74836.5,20.59,-24.71,-26.71,0,*41
1508241664.63,20212,18.81,74832.8,20.61,-25.87,-27.77,0,*46
1508241665.91,20213,18.81,74832.8,20.61,-25.71,-27.61,0,*49
1508241667.17,20214,18.81,74834.8,20.59,-26.07,-28.05,0,*4A
1508241668.44,20215,18.81,74832.8,20.59,-25.55,-27.45,0,*44
1508241669.73,20216,18.81,74832.8,20.59,-24.71,-26.71,0,*46
1508241670.93,20217,18.81,74832.5,20.57,-24.51,-26.61,0,*4A
1508241672.21,20218,18.81,74838.5,20.59,-24.87,-26.93,0,*4D
1508241673.48,20219,18.81,74834.3,20.59,-24.87,-26.71,0,*40
1508241674.74,20220,18.81,74834.3,20.59,-26.13,-28.15,0,*49
1508241675.99,20221,18.81,74834.8,20.59,-26.45,-28.47,0,*4C
1508241677.2,20222,18.81,74834.3,20.57,-27.19,-29.23,0,*4A
1508241678.4,20223,18.81,74834.3,20.57,-26.49,-28.53,0,*49
1508241679.66,20224,18.81,74832.8,20.55,-26.81,-28.85,0,*43
1508241680.88,20225,18.81,74834.3,20.55,-25.65,-27.55,0,*49
1508241682.12,20226,18.81,74836.5,20.55,-24.57,-26.39,0,*41
1508241683.38,20227,18.81,74836.3,20.55,-23.75,-25.81,0,*47
1508241684.65,20228,18.81,74832.8,20.55,-24.67,-26.71,0,*40
1508241685.85,20229,18.81,74834.8,20.57,-24.51,-26.49,0,*4D
1508241687.09,20230,18.81,74838.5,20.57,-24.31,-26.29,0,*45
1508241688.31,20231,18.81,74834.8,20.57,-24.93,-26.81,0,*4E
1508241689.5,20232,18.81,74832.8,20.57,-25.13,-27.13,0,*4E
1508241690.75,20233,18.81,74838.8,20.61,-25.29,-27.13,0,*43
1508241691.98,20234,18.81,74836.8,20.59,-26.23,-28.15,0,*4F
1508241693.21,20235,18.81,74838.0,20.57,-28.69,-30.73,0,*49
1508241694.41,20236,18.81,74834.3,20.53,-27.89,-29.83,0,*48
1508241695.64,20237,18.81,74838.3,20.53,-27.23,-29.45,0,*43
1508241696.89,20238,18.81,74836.5,20.51,-25.71,-27.55,0,*44
1508241698.14,20239,18.81,74838.8,20.51,-25.39,-27.39,0,*43
1508241699.39,20240,18.81,74834.8,20.51,-27.07,-29.35,0,*40
1508241700.63,20241,18.81,74836.5,20.51,-27.03,-29.13,0,*41
1508241701.86,20242,18.81,74838.0,20.49,-24.61,-26.77,0,*41
1508241703.08,20243,18.81,74836.0,20.51,-24.61,-26.61,0,*4E
1508241704.28,20244,18.81,74836.5,20.53,-25.13,-27.13,0,*4B
1508241705.52,20245,18.81,74834.0,20.51,-26.87,-28.79,0,*45
1508241706.75,20246,18.81,74838.0,20.51,-26.39,-28.31,0,*4F
1508241708.02,20247,18.81,74836.8,20.51,-25.45,-27.39,0,*41
1508241709.26,20248,18.81,74838.0,20.51,-24.93,-26.93,0,*45
1508241710.47,20249,18.81,74838.0,20.53,-25.13,-27.29,0,*4F
1508241711.69,20250,18.81,74834.5,20.51,-25.61,-27.77,0,*4B
1508241712.94,20251,18.81,74836.5,20.53,-26.77,-28.75,0,*41
1508241714.14,20252,18.81,74836.3,20.53,-26.39,-28.31,0,*48
1508241715.42,20253,18.81,74836.3,20.51,-26.29,-28.25,0,*4F
1508241716.64,20254,18.81,74834.8,20.51,-25.13,-27.07,0,*4D
1508241717.93,20255,18.81,74836.3,20.51,-24.71,-26.71,0,*49
1508241719.17,20256,18.81,74836.8,20.51,-24.87,-26.87,0,*4A
1508241720.45,20257,18.81,74832.0,20.51,-28.21,-30.51,0,*47
1508241721.7,20258,18.81,74834.8,20.51,-27.39,-29.61,0,*45
1508241722.93,20259,18.81,74838.8,20.49,-26.81,-28.85,0,*44
1508241724.16,20260,18.81,74836.5,20.47,-27.03,-29.07,0,*40
1508241725.39,20261,18.81,74836.0,20.47,-26.39,-28.31,0,*4D
1508241726.65,20262,18.81,74838.3,20.47,-27.23,-29.45,0,*46
1508241727.87,20263,18.81,74836.5,20.45,-27.35,-29.45,0,*42
1508241729.07,20264,18.81,74836.3,20.45,-28.31,-30.23,0,*46
1508241730.33,20265,18.81,74836.5,20.39,-27.61,-29.57,0,*4D
1508241731.59,20266,18.81,74838.8,20.39,-27.77,-29.89,0,*4A
1508241732.85,20267,18.81,74838.8,20.37,-27.61,-29.73,0,*47
1508241734.1,20268,18.81,74836.5,20.37,-26.81,-28.79,0,*4C
1508241735.33,20269,18.81,74836.0,20.37,-25.91,-28.09,0,*48
1508241736.56,20270,18.81,74838.8,20.37,-28.15,-30.17,0,*47
1508241737.82,20271,18.81,74836.0,20.35,-28.05,-30.27,0,*46
1508241739.06,20272,18.81,74836.3,20.33,-28.53,-30.51,0,*41
1508241740.3,20273,18.81,74838.5,20.33,-27.19,-29.13,0,*4F
1508241741.59,20274,18.81,74838.3,20.31,-25.71,-27.61,0,*4D
1508241742.85,20275,18.81,74836.8,20.31,-24.61,-26.71,0,*4C
1508241744.11,20276,18.81,74836.8,20.35,-26.49,-28.59,0,*47
1508241745.37,20277,18.81,74838.0,20.35,-26.33,-28.15,0,*43
1508241746.6,20278,18.81,74838.0,20.33,-25.35,-27.19,0,*4C
1508241747.83,20279,18.81,74836.5,20.33,-25.23,-27.23,0,*43
1508241749.09,20280,18.81,74838.5,20.35,-26.29,-28.31,0,*46
1508241750.32,20281,18.81,74834.3,20.35,-27.29,-29.23,0,*44
1508241751.55,20282,18.81,74838.5,20.33,-26.87,-28.91,0,*4C
1508241752.77,20283,18.81,74832.0,20.33,-25.23,-27.19,0,*4F
1508241754.03,20284,18.81,74836.0,20.35,-24.51,-26.55,0,*43
1508241755.31,20285,18.81,74840.3,20.35,-25.03,-26.97,0,*4A
1508241756.54,20286,18.81,74836.3,20.37,-24.97,-26.93,0,*43
1508241757.77,20287,18.81,74836.8,20.37,-24.77,-26.77,0,*46
1508241759.0,20288,18.81,74836.0,20.39,-25.91,-27.93,0,*45
1508241760.2,20289,18.81,74840.3,20.37,-26.61,-28.53,0,*45
1508241761.43,20290,18.81,74836.8,20.37,-26.49,-28.47,0,*42
1508241762.68,20291,18.81,74838.8,20.35,-26.87,-28.91,0,*48
1508241763.91,20292,18.81,74836.5,20.37,-25.91,-27.83,0,*41
1508241765.13,20293,18.81,74838.0,20.37,-27.07,-29.17,0,*4E
1508241766.37,20294,18.81,74834.0,20.35,-26.49,-28.37,0,*43
1508241767.62,20295,18.81,74832.3,20.35,-28.31,-30.55,0,*4E
1508241768.85,20296,18.81,74834.0,20.33,-28.79,-31.05,0,*43
1508241770.06,20297,18.81,74838.5,20.33,-27.89,-29.95,0,*42
1508241771.26,20298,18.81,74832.0,20.29,-27.55,-29.67,0,*4A
1508241772.47,20299,18.81,74838.5,20.29,-28.31,-30.33,0,*4F
1508241773.68,20300,18.81,74838.3,20.27,-26.65,-28.53,0,*40
1508241774.93,20301,18.81,74838.8,20.27,-26.81,-28.75,0,*4F
1508241776.16,20302,18.81,74836.3,20.29,-25.81,-27.67,0,*4D
1508241777.39,20303,18.81,74836.5,20.31,-25.19,-27.07,0,*42
1508241778.62,20304,18.81,74836.8,20.29,-25.49,-27.45,0,*4F
1508241779.82,20305,18.81,74836.3,20.29,-25.39,-27.29,0,*43
1508241781.04,20306,18.81,74838.3,20.29,-26.07,-28.15,0,*4E
1508241782.24,20307,18.81,74836.8,20.29,-28.31,-30.33,0,*49
1508241783.47,20308,18.81,74832.3,20.29,-28.15,-30.05,0,*45
1508241784.68,20309,18.81,74832.3,20.29,-25.65,-27.67,0,*4C
1508241785.91,20310,18.81,74836.3,20.29,-25.97,-27.93,0,*42
1508241787.11,20311,18.81,74836.0,20.29,-25.61,-27.51,0,*44
1508241788.34,20312,18.81,74834.5,20.29,-24.77,-26.93,0,*4E
1508241789.56,20313,18.81,74836.0,20.29,-24.15,-26.23,0,*40
1508241790.83,20314,18.81,74834.0,20.31,-24.25,-26.23,0,*4D
1508241792.11,20315,18.81,74834.3,20.31,-25.03,-27.19,0,*41
1508241793.39,20316,18.81,74836.3,20.35,-26.55,-28.47,0,*42
1508241794.65,20317,18.81,74836.0,20.33,-25.75,-27.61,0,*4F
1508241795.87,20318,18.81,74836.5,20.33,-25.23,-27.23,0,*45
1508241797.1,20319,18.81,74834.3,20.35,-24.97,-26.87,0,*43
1508241798.39,20320,18.81,74836.8,20.35,-24.25,-26.33,0,*4F
1508241799.66,20321,18.81,74836.8,20.35,-24.41,-26.39,0,*46
1508241800.91,20322,18.81,74838.0,20.37,-23.99,-26.13,0,*4D
1508241802.12,20323,18.81,74836.0,20.37,-24.51,-26.61,0,*4A
1508241803.36,20324,18.81,74836.8,20.39,-27.29,-29.45,0,*46
1508241804.59,20325,18.81,74836.0,20.37,-25.49,-27.45,0,*43
1508241805.85,20326,18.81,74836.3,20.37,-24.83,-26.97,0,*49
1508241807.05,20327,18.81,74836.5,20.37,-24.61,-26.61,0,*4D
1508241808.31,20328,18.81,74838.5,20.39,-24.35,-26.33,0,*4A
1508241809.58,20329,18.81,74832.5,20.39,-24.47,-26.33,0,*4E
1508241810.8,20330,18.81,74838.8,20.43,-25.09,-27.07,0,*46
1508241812.03,20331,18.81,74834.8,20.45,-25.55,-27.51,0,*4B
1508241813.24,20332,18.81,74832.5,20.45,-24.35,-26.39,0,*40
1508241814.48,20333,18.81,74838.8,20.45,-24.25,-26.23,0,*4B
1508241815.71,20334,18.81,74838.5,20.45,-24.35,-26.33,0,*4C
1508241816.91,20335,18.81,74836.8,20.45,-24.35,-26.23,0,*4C
1508241818.17,20336,18.81,74838.0,20.47,-23.89,-25.97,0,*41
1508241819.38,20337,18.81,74836.8,20.49,-24.05,-26.07,0,*47
1508241820.58,20338,18.81,74838.0,20.49,-24.51,-26.49,0,*43
1508241821.8,20339,18.88,74838.3,20.49,-25.19,-27.19,0,*4B
1508241823.03,20340,18.81,74834.0,20.49,-25.49,-27.35,0,*4E
1508241824.25,20341,18.81,74838.8,20.51,-24.57,-26.45,0,*4E
1508241825.53,20342,18.81,74838.3,20.51,-24.71,-26.71,0,*4E
1508241826.77,20343,18.81,74836.5,20.53,-24.41,-26.39,0,*42
1508241828.02,20344,18.81,74836.5,20.51,-23.99,-26.07,0,*48
1508241829.23,20345,18.81,74838.3,20.53,-24.47,-26.45,0,*49
1508241830.51,20346,18.81,74838.8,20.51,-24.71,-26.71,0,*4A
1508241831.73,20347,18.81,74836.8,20.53,-23.99,-25.91,0,*45
1508241832.97,20348,18.88,74838.5,20.53,-23.99,-26.03,0,*42
1508241834.24,20349,18.88,74842.8,20.55,-23.85,-25.81,0,*41
1508241835.49,20350,18.81,74836.3,20.57,-25.03,-26.81,0,*40
1508241836.69,20351,18.81,74838.0,20.57,-25.35,-27.13,0,*4E
1508241837.92,20352,18.88,74838.8,20.57,-24.47,-26.33,0,*4A
1508241839.16,20353,18.88,74838.3,20.57,-24.47,-26.33,0,*4B
1508241840.36,20354,18.81,74838.5,20.57,-23.89,-25.91,0,*42
1508241841.56,20355,18.81,74836.5,20.57,-24.47,-26.45,0,*4C
1508241842.81,20356,18.81,74836.8,20.59,-25.23,-27.23,0,*43
1508241844.04,20357,18.81,74838.8,20.61,-24.57,-26.39,0,*41
1508241845.33,20358,18.81,74838.5,20.59,-24.25,-26.13,0,*48
1508241846.61,20359,18.88,74838.5,20.61,-23.95,-25.75,0,*4D
1508241847.88,20360,18.81,74836.5,20.61,-24.31,-26.29,0,*44
1508241849.13,20361,18.81,74838.5,20.61,-24.41,-26.45,0,*48
1508241850.42,20362,18.81,74832.3,20.61,-23.85,-25.97,0,*48
1508241851.65,20363,18.88,74838.8,20.63,-24.11,-26.07,0,*4B
1508241852.88,20364,18.81,74836.5,20.63,-24.35,-26.33,0,*4D
1508241854.09,20365,18.81,74834.8,20.67,-25.13,-27.03,0,*4F
1508241855.29,20366,18.81,74838.0,20.67,-24.97,-26.87,0,*4C
1508241856.54,20367,18.88,74836.3,20.67,-24.15,-26.17,0,*4E
1508241857.8,20368,18.88,74840.3,20.67,-24.15,-26.13,0,*45
1508241859.04,20369,18.81,74838.0,20.67,-24.47,-26.33,0,*41
1508241860.27,20370,18.81,74838.0,20.67,-25.03,-27.03,0,*4A
1508241861.53,20371,18.81,74838.0,20.69,-25.03,-27.03,0,*45
1508241862.79,20372,18.88,74836.8,20.69,-25.45,-27.45,0,*46
1508241864.02,20373,18.81,74836.5,20.69,-25.13,-27.13,0,*47
1508241865.23,20374,18.81,74836.0,20.67,-24.47,-26.49,0,*40
1508241866.47,20375,18.88,74838.3,20.67,-24.51,-26.33,0,*4B
1508241867.75,20376,18.81,74838.8,20.69,-24.15,-26.17,0,*40
1508241869.0,20377,18.81,74838.8,20.69,-23.39,-25.45,0,*4C
1508241870.28,20378,18.81,74838.8,20.69,-23.85,-25.81,0,*4C
1508241871.54,20379,18.88,74836.5,20.69,-24.71,-26.61,0,*4C
1508241872.77,20380,18.88,74836.3,20.71,-24.97,-26.81,0,*45
1508241873.98,20381,18.88,74838.3,20.71,-24.57,-26.39,0,*4B
1508241875.23,20382,18.88,74838.0,20.73,-24.35,-26.33,0,*44
1508241876.46,20383,18.88,74838.8,20.73,-23.59,-25.65,0,*48
1508241877.67,20384,18.81,74838.8,20.75,-23.89,-25.87,0,*48
1508241878.88,20385,18.88,74836.5,20.75,-24.05,-26.03,0,*45
1508241880.08,20386,18.81,74836.8,20.75,-23.89,-25.91,0,*4D
1508241881.33,20387,18.88,74836.5,20.75,-24.87,-26.71,0,*48
1508241882.59,20388,18.88,74840.3,20.77,-26.33,-28.37,0,*44
1508241883.81,20389,18.88,74842.5,20.73,-27.71,-29.61,0,*44
1508241885.03,20390,18.81,74836.8,20.73,-27.03,-29.07,0,*49
1508241886.26,20391,18.88,74838.5,20.71,-27.45,-29.45,0,*4E
1508241887.51,20392,18.88,74840.3,20.69,-27.93,-30.05,0,*43
1508241888.74,20393,18.88,74840.5,20.67,-27.03,-29.01,0,*49
1508241889.97,20394,18.81,74836.3,20.63,-28.05,-30.23,0,*4B
1508241891.25,20395,18.88,74840.0,20.61,-28.09,-30.17,0,*43
1508241892.5,20396,18.88,74836.5,20.59,-27.07,-29.17,0,*42
1508241893.7,20397,18.88,74840.8,20.57,-26.45,-28.53,0,*4B
1508241894.93,20398,18.88,74842.0,20.57,-26.17,-28.37,0,*41
1508241896.18,20399,18.88,74836.5,20.55,-27.35,-29.57,0,*44
1508241897.45,20400,18.88,74838.5,20.55,-27.23,-29.39,0,*4C
1508241898.7,20401,18.88,74838.0,20.55,-27.39,-29.57,0,*4E
1508241899.95,20402,18.81,74838.8,20.53,-28.47,-30.55,0,*47
1508241901.21,20403,18.88,74836.8,20.51,-28.63,-30.67,0,*43
1508241902.46,20404,18.88,74838.0,20.49,-26.97,-29.01,0,*40
1508241903.71,20405,18.88,74840.8,20.47,-27.67,-29.73,0,*44
1508241904.97,20406,18.81,74838.0,20.47,-27.55,-29.73,0,*46
1508241906.19,20407,18.88,74840.0,20.47,-27.89,-29.95,0,*4E
1508241907.43,20408,18.88,74840.3,20.45,-28.75,-30.83,0,*40
1508241908.68,20409,18.81,74836.3,20.43,-28.05,-29.95,0,*4F
1508241909.93,20410,18.88,74836.0,20.43,-27.29,-29.29,0,*41
1508241911.19,20411,18.88,74836.0,20.37,-26.97,-29.01,0,*4D
1508241912.41,20412,18.88,74838.5,20.37,-27.13,-29.17,0,*44
1508241913.62,20413,18.88,74836.8,20.37,-26.61,-28.69,0,*49
1508241914.87,20414,18.88,74840.8,20.37,-25.81,-27.83,0,*48
1508241916.13,20415,18.88,74836.0,20.37,-26.33,-28.25,0,*40
1508241917.35,20416,18.88,74836.0,20.37,-27.35,-29.45,0,*43
1508241918.61,20417,18.88,74836.3,20.37,-27.45,-29.51,0,*40
1508241919.87,20418,18.88,74838.5,20.35,-26.97,-29.07,0,*40
1508241921.08,20419,18.88,74836.3,20.33,-27.77,-29.83,0,*44
1508241922.34,20420,18.88,74836.0,20.35,-27.55,-29.51,0,*47
1508241923.59,20421,18.81,74834.5,20.33,-26.17,-28.09,0,*4B
1508241924.85,20422,18.88,74842.3,20.35,-26.87,-28.91,0,*46
1508241926.07,20423,18.88,74836.8,20.33,-27.07,-29.29,0,*4A
1508241927.31,20424,18.88,74838.8,20.29,-27.77,-30.01,0,*43
1508241928.6,20425,18.88,74842.3,20.31,-26.77,-28.59,0,*4E
1508241929.82,20426,18.88,74836.8,20.29,-25.91,-27.83,0,*47
1508241931.08,20427,18.88,74840.3,20.31,-26.07,-28.21,0,*44
1508241932.29,20428,18.88,74838.8,20.29,-27.67,-29.67,0,*46
1508241933.52,20429,18.88,74838.5,20.29,-27.39,-29.45,0,*4C
1508241934.75,20430,18.88,74840.3,20.29,-28.31,-30.51,0,*4E
1508241935.98,20431,18.88,74840.8,20.27,-28.21,-30.23,0,*45
1508241937.23,20432,18.88,74840.0,20.25,-26.93,-29.07,0,*4D
1508241938.45,20433,18.88,74842.3,20.25,-25.87,-27.77,0,*43
1508241939.66,20434,18.88,74836.0,20.27,-26.03,-28.15,0,*42
1508241940.9,20435,18.88,74838.0,20.27,-26.29,-28.15,0,*4B
1508241942.18,20436,18.88,74836.8,20.25,-25.55,-27.35,0,*4F
1508241943.4,20437,18.88,74842.5,20.27,-24.97,-26.97,0,*4A
1508241944.62,20438,18.88,74842.8,20.29,-24.51,-26.61,0,*48
1508241945.87,20439,18.88,74836.3,20.31,-26.23,-28.25,0,*49
1508241947.11,20440,18.88,74836.0,20.29,-26.81,-28.69,0,*4E
1508241948.34,20441,18.88,74836.8,20.29,-26.07,-27.99,0,*41
1508241949.57,20442,18.88,74840.0,20.29,-25.29,-27.29,0,*46
1508241950.8,20443,18.88,74840.5,20.29,-27.39,-29.45,0,*40
1508241952.07,20444,18.88,74840.8,20.31,-27.61,-29.67,0,*43
1508241953.32,20445,18.88,74842.8,20.29,-28.43,-30.55,0,*4D
1508241954.59,20446,18.88,74842.0,20.25,-28.79,-30.95,0,*47
1508241955.83,20447,18.88,74840.5,20.23,-29.23,-31.23,0,*42
1508241957.11,20448,18.88,74836.8,20.21,-26.97,-28.63,0,*43
1508241958.36,20449,18.88,74840.5,20.21,-26.39,-28.47,0,*40
1508241959.58,20450,18.88,74836.5,20.23,-27.03,-29.13,0,*42
1508241960.81,20451,18.88,74836.5,20.21,-26.07,-28.15,0,*43
1508241962.06,20452,18.88,74838.0,20.21,-25.29,-27.29,0,*4F
1508241963.32,20453,18.88,74842.0,20.21,-26.65,-28.47,0,*42
1508241964.54,20454,18.88,74842.0,20.23,-25.39,-27.23,0,*40
1508241965.8,20455,18.88,74836.8,20.23,-24.87,-26.77,0,*45
1508241967.03,20456,18.88,74840.5,20.23,-25.55,-27.71,0,*4F
1508241968.25,20457,18.88,74836.3,20.25,-25.19,-27.03,0,*45
1508241969.48,20458,18.88,74838.3,20.25,-24.35,-26.39,0,*4D
1508241970.72,20459,18.88,74840.5,20.29,-24.31,-26.29,0,*45
1508241971.93,20460,18.88,74840.0,20.29,-25.23,-27.29,0,*4C
1508241973.19,20461,18.88,74840.5,20.31,-24.61,-26.55,0,*49
1508241974.4,20462,18.88,74836.0,20.29,-24.35,-26.39,0,*48
1508241975.63,20463,18.88,74842.0,20.31,-25.91,-27.89,0,*45
1508241976.84,20464,18.88,74836.0,20.29,-26.65,-28.69,0,*42
1508241978.07,20465,18.88,74840.5,20.29,-26.07,-27.99,0,*47
1508241979.31,20466,18.88,74840.5,20.29,-27.61,-29.61,0,*4C
1508241980.56,20467,18.88,74838.0,20.31,-26.87,-28.79,0,*45
1508241981.8,20468,18.88,74838.8,20.29,-27.39,-29.29,0,*43
1508241983.08,20469,18.88,74840.5,20.25,-28.09,-30.01,0,*40
1508241984.32,20470,18.88,74836.8,20.25,-26.87,-28.79,0,*46
1508241985.61,20471,18.88,74840.0,20.25,-26.33,-28.25,0,*41
1508241986.81,20472,18.88,74838.8,20.23,-27.07,-29.07,0,*43
1508241988.04,20473,18.88,74838.5,20.23,-26.03,-28.05,0,*44
1508241989.32,20474,18.88,74836.3,20.21,-27.99,-29.89,0,*46
1508241990.57,20475,18.88,74836.5,20.23,-27.23,-29.39,0,*4F
1508241991.83,20476,18.88,74840.8,20.21,-28.79,-30.83,0,*47
1508241993.08,20477,18.88,74842.8,20.21,-27.83,-29.83,0,*44
1508241994.37,20478,18.88,74842.0,20.17,-26.81,-28.63,0,*42
1508241995.61,20479,18.88,74836.3,20.15,-26.97,-28.85,0,*4E
1508241996.84,20480,18.88,74840.0,20.17,-28.53,-30.45,0,*49
1508241998.07,20481,18.88,74840.3,20.15,-28.47,-30.45,0,*4F
1508241999.34,20482,18.88,74836.8,20.13,-25.71,-27.67,0,*44
1508242000.6,20483,18.88,74840.8,20.13,-25.55,-27.67,0,*43
1508242001.85,20484,18.88,74836.8,20.13,-26.71,-28.69,0,*40
1508242003.07,20485,18.88,74840.5,20.15,-27.13,-29.17,0,*4A
1508242004.33,20486,18.88,74840.5,20.13,-26.49,-28.43,0,*41
1508242005.58,20487,18.88,74838.0,20.13,-24.77,-26.71,0,*40
1508242006.84,20488,18.88,74838.0,20.15,-24.67,-26.71,0,*48
1508242008.07,20489,18.88,74840.3,20.17,-25.49,-27.51,0,*45
1508242009.29,20490,18.88,74840.0,20.15,-25.35,-27.45,0,*41
1508242010.58,20491,18.88,74838.5,20.17,-26.17,-28.05,0,*4A
1508242011.81,20492,18.88,74838.8,20.15,-25.19,-27.19,0,*44
1508242013.04,20493,18.88,74840.0,20.17,-27.71,-29.83,0,*46
1508242014.3,20494,18.88,74834.3,20.15,-25.97,-27.99,0,*4C
1508242015.56,20495,18.88,74836.0,20.17,-25.49,-27.35,0,*4A
1508242016.84,20496,18.88,74838.0,20.17,-25.81,-27.83,0,*40
1508242018.1,20497,18.88,74840.0,20.17,-27.61,-29.57,0,*4A
1508242019.33,20498,18.88,74836.8,20.15,-26.49,-28.47,0,*4C
1508242020.54,20499,18.88,74836.3,20.15,-26.87,-28.85,0,*41
1508242021.75,20500,18.88,74838.0,20.15,-26.61,-28.53,0,*43
1508242023.02,20501,18.88,74838.5,20.15,-26.33,-28.21,0,*40
1508242024.25,20502,18.88,74836.3,20.13,-26.49,-28.37,0,*4F
1508242025.47,20503,18.88,74842.3,20.13,-27.03,-28.97,0,*4B
1508242026.73,20504,18.88,74838.8,20.13,-25.75,-27.55,0,*4E
1508242027.94,20505,18.88,74838.5,20.15,-25.65,-27.67,0,*49
1508242029.15,20506,18.88,74838.0,20.15,-25.61,-27.51,0,*4B
1508242030.43,20507,18.88,74838.8,20.17,-26.13,-27.99,0,*4A
1508242031.7,20508,18.88,74838.8,20.17,-25.81,-27.83,0,*46
1508242032.94,20509,18.88,74838.8,20.17,-26.65,-28.37,0,*4E
1508242034.19,20510,18.88,74838.8,20.17,-25.87,-27.83,0,*49
1508242035.42,20511,18.88,74840.0,20.15,-27.13,-29.17,0,*46
1508242036.65,20512,18.88,74840.8,20.15,-26.71,-28.53,0,*41
1508242037.88,20513,18.88,74836.8,20.15,-25.45,-27.29,0,*46
1508242039.11,20514,18.88,74836.8,20.15,-25.65,-27.45,0,*49
1508242040.35,20515,18.88,74840.3,20.15,-26.29,-28.37,0,*49
1508242041.58,20516,18.88,74836.8,20.15,-27.71,-29.73,0,*47
1508242042.8,20517,18.88,74838.0,20.13,-27.89,-29.79,0,*4D
1508242044.0,20518,18.88,74836.5,20.11,-25.61,-27.55,0,*44
1508242045.25,20519,18.88,74838.8,20.13,-25.39,-27.45,0,*4B
1508242046.52,20520,18.88,74842.5,20.13,-25.03,-26.93,0,*42
1508242047.82,20521,18.88,74840.3,20.13,-24.71,-26.77,0,*4D
1508242049.07,20522,18.94,74842.0,20.13,-24.77,-26.71,0,*4E
1508242050.31,20523,18.88,74838.3,20.15,-24.71,-26.61,0,*4E
1508242051.56,20524,18.88,74842.8,20.15,-24.47,-26.33,0,*4B
1508242052.79,20525,18.88,74842.0,20.15,-25.13,-26.97,0,*44
1508242054.02,20526,18.88,74836.5,20.17,-24.97,-26.87,0,*49
1508242055.24,20527,18.88,74838.8,20.17,-24.97,-26.87,0,*48
1508242056.49,20528,18.88,74842.0,20.21,-25.75,-27.77,0,*41
1508242057.77,20529,18.88,74842.5,20.21,-29.17,-31.23,0,*4E
1508242059.04,20530,18.88,74840.8,20.15,-29.51,-31.51,0,*46
1508242060.29,20531,18.88,74836.8,20.15,-27.35,-29.39,0,*4C
1508242061.52,20532,18.88,74840.8,20.11,-28.63,-31.01,0,*45
1508242062.78,20533,18.88,74836.5,20.11,-28.25,-30.39,0,*4C
1508242064.04,20534,18.88,74840.5,20.09,-27.29,-29.35,0,*45
1508242065.26,20535,18.88,74838.8,20.09,-27.93,-29.95,0,*4F
1508242066.49,20536,18.88,74842.0,20.07,-27.67,-29.73,0,*41
1508242067.75,20537,18.88,74842.3,20.07,-26.29,-28.21,0,*4D
1508242069.0,20538,18.88,74838.8,20.07,-25.45,-27.19,0,*4F
1508242070.26,20539,18.88,74842.0,20.07,-26.29,-28.21,0,*43
1508242071.51,20540,18.88,74838.3,20.07,-25.45,-27.35,0,*4E
1508242072.72,20541,18.88,74840.5,20.07,-25.49,-27.51,0,*41
1508242073.99,20542,18.88,74842.0,20.09,-25.81,-27.83,0,*47
1508242075.23,20543,18.88,74840.0,20.07,-26.65,-28.47,0,*46
1508242076.45,20544,18.94,74840.0,20.09,-25.23,-27.29,0,*49
1508242077.7,20545,18.88,74840.8,20.09,-24.57,-26.55,0,*40
1508242078.99,20546,18.88,74838.3,20.09,-24.25,-26.13,0,*44
1508242080.24,20547,18.88,74838.3,20.11,-23.95,-25.81,0,*48
1508242081.48,20548,18.88,74840.5,20.13,-24.05,-26.03,0,*42
1508242082.75,20549,18.88,74840.0,20.15,-24.71,-26.81,0,*4C
1508242083.96,20550,18.94,74842.0,20.15,-24.97,-27.03,0,*47
1508242085.2,20551,18.94,74842.5,20.15,-27.51,-29.51,0,*46
1508242086.44,20552,18.88,74836.5,20.15,-26.13,-28.15,0,*43
1508242087.64,20553,18.88,74838.8,20.15,-27.71,-29.67,0,*43
1508242088.9,20554,18.88,74836.3,20.11,-28.43,-30.55,0,*47
1508242090.13,20555,18.88,74840.8,20.11,-29.17,-31.17,0,*41
1508242091.39,20556,18.88,74838.3,20.09,-28.63,-30.83,0,*45
1508242092.65,20557,18.88,74838.3,20.07,-29.89,-31.95,0,*49
1508242093.88,20558,18.88,74840.5,20.03,-27.61,-29.61,0,*48
1508242095.15,20559,18.88,74836.5,20.05,-26.33,-28.37,0,*4B
1508242096.35,20560,18.88,74836.5,20.03,-26.45,-28.31,0,*40